TimeEDT,TemperatureF,Dew PointF,Humidity,Sea Level PressureIn,VisibilityMPH,Wind Direction,Wind SpeedMPH,Gust SpeedMPH,PrecipitationIn,Events,Conditions,WindDirDegrees,DateUTC
12:53 AM,73.9,66.9,79,29.85,10.0,SSW,5.8,-,N/A,,Overcast,200,2012-10-19 04:53:00
1:24 AM,73.4,66.2,78,29.84,10.0,Calm,Calm,-,N/A,,Overcast,0,2012-10-19 05:24:00
1:53 AM,73.0,66.9,81,29.86,10.0,Calm,Calm,-,N/A,,Mostly Cloudy,0,2012-10-19 05:53:00
2:53 AM,73.0,68.0,84,29.85,10.0,Calm,Calm,-,0.00,,Overcast,0,2012-10-19 06:53:00
3:24 AM,71.6,68.0,88,29.82,10.0,Calm,Calm,-,0.00,,Overcast,0,2012-10-19 07:24:00
3:41 AM,71.6,68.0,88,29.82,10.0,Variable,3.5,-,0.00,,Mostly Cloudy,0,2012-10-19 07:41:00
3:53 AM,72.0,68.0,87,29.84,10.0,Calm,Calm,-,0.00,,Mostly Cloudy,0,2012-10-19 07:53:00
4:00 AM,71.6,66.2,83,29.82,10.0,Calm,Calm,-,N/A,,Scattered Clouds,0,2012-10-19 08:00:00
4:11 AM,71.6,66.2,83,29.83,10.0,Calm,Calm,-,N/A,,Mostly Cloudy,0,2012-10-19 08:11:00
4:21 AM,71.6,66.2,83,29.83,8.0,Calm,Calm,-,N/A,,Mostly Cloudy,0,2012-10-19 08:21:00
4:53 AM,71.1,66.9,87,29.85,10.0,Variable,3.5,-,N/A,,Mostly Cloudy,0,2012-10-19 08:53:00
5:19 AM,69.8,66.2,88,29.83,10.0,Calm,Calm,-,N/A,,Scattered Clouds,0,2012-10-19 09:19:00
5:53 AM,70.0,66.0,87,29.87,10.0,Calm,Calm,-,N/A,,Overcast,0,2012-10-19 09:53:00
6:53 AM,68.0,64.0,87,29.88,10.0,Calm,Calm,-,N/A,,Mostly Cloudy,0,2012-10-19 10:53:00
7:53 AM,64.9,61.0,87,29.90,10.0,Calm,Calm,-,N/A,,Scattered Clouds,0,2012-10-19 11:53:00
8:53 AM,69.1,57.0,65,29.91,10.0,Variable,4.6,-,0.01,,Partly Cloudy,0,2012-10-19 12:53:00
9:53 AM,73.0,46.0,38,29.93,10.0,North,10.4,-,N/A,,Partly Cloudy,10,2012-10-19 13:53:00
10:53 AM,75.0,39.0,27,29.93,10.0,North,10.4,16.1,N/A,,Clear,360,2012-10-19 14:53:00
11:53 AM,77.0,41.0,28,29.94,10.0,NNE,9.2,-,N/A,,Clear,30,2012-10-19 15:53:00
12:53 PM,80.1,39.9,24,29.91,10.0,Calm,Calm,-,N/A,,Clear,0,2012-10-19 16:53:00
1:53 PM,80.1,39.0,23,29.89,10.0,Variable,3.5,-,N/A,,Clear,0,2012-10-19 17:53:00
2:53 PM,82.0,39.0,22,29.87,10.0,Variable,3.5,-,N/A,,Clear,0,2012-10-19 18:53:00
3:53 PM,82.0,39.0,22,29.85,10.0,Calm,Calm,-,N/A,,Clear,0,2012-10-19 19:53:00
4:53 PM,82.0,41.0,23,29.85,10.0,SW,3.5,-,N/A,,Partly Cloudy,220,2012-10-19 20:53:00
5:53 PM,77.0,44.1,31,29.84,10.0,Calm,Calm,-,N/A,,Partly Cloudy,0,2012-10-19 21:53:00
6:53 PM,69.1,52.0,54,29.85,10.0,Calm,Calm,-,N/A,,Clear,0,2012-10-19 22:53:00
7:53 PM,63.0,48.9,60,29.86,10.0,Calm,Calm,-,N/A,,Clear,0,2012-10-19 23:53:00
8:53 PM,59.0,48.9,69,29.87,10.0,Calm,Calm,-,N/A,,Clear,0,2012-10-20 00:53:00
9:53 PM,57.9,50.0,75,29.89,10.0,Calm,Calm,-,N/A,,Clear,0,2012-10-20 01:53:00
10:53 PM,55.9,48.9,77,29.91,10.0,Calm,Calm,-,N/A,,Clear,0,2012-10-20 02:53:00
11:53 PM,54.0,48.9,83,29.92,10.0,Calm,Calm,-,N/A,,Clear,0,2012-10-20 03:53:00